Miscellaneous Local Product
Issued by NWS North Platte, NE

Home | Current Version | Previous Version | Text Only | Print | Product List | Glossary On
Versions: 1 2 3 4 5 6 7 8 9 10 11 12 13 14 15 16 17 18 19 20 21 22 23 24 25 26 27 28 29 30 31 32 33 34 35 36 37 38 39 40 41 42 43 44 45 46 47 48 49 50
000
AXUS43 KLBF 050510
MISLBF


WESTERN AND NORTH CENTRAL NEBRASKA HOURLY WEATHER ROUNDUP
NATIONAL WEATHER SERVICE NORTH PLATTE NE
1200 AM CDT SUN JUL 05 2015

***STATIONS NOT REPORTING VARIABLES SUCH AS SKY/WEATHER OR
PRESSURE ARE PROVIDED BY THE NEBRASKA DEPARTMENT OF
ROADS...RAWS...AND APRS NETWORKS...AND ARE NOT UNDER
NATIONAL WEATHER SERVICE QUALITY CONTROL***

...OBSERVATIONS IN AND NEAR THE EASTERN PANHANDLE OF NEBRASKA...

CITY           SKY/WX    TMP DP  RH WIND       PRES   REMARKS
PINE RIDGE     CLEAR     72  63  73 VRB7      29.86R
CHADRON        PTCLDY    68  64  87 CALM      29.84S
ALLIANCE       CLEAR     67  61  81 SE9       29.88F
SIDNEY         CLOUDY    77  59  53 S12       29.93R
WHITECLAY        N/A     71  64  76 SE3         N/A
CRESCENT LAKE    N/A     74  63  67 S8G15       N/A
BIG SPRINGS      N/A     79  65  61 SE13        N/A
$$

...OBSERVATIONS IN NORTH CENTRAL NEBRASKA...

CITY           SKY/WX    TMP DP  RH WIND       PRES   REMARKS
VALENTINE      CLOUDY    80  64  58 SE9       29.83R
THEDFORD       CLOUDY    78  66  66 S17G23    29.87F
AINSWORTH      CLOUDY    78  65  63 S13G25    29.85S
O`NEILL        CLOUDY    74  66  76 SE13      29.88S
ORD            CLOUDY    74  64  71 SE10      29.88S
BROKEN BOW     CLOUDY    76  65  68 SE10      29.90S
VALENTINE NWR    N/A     77  65  65 S17G24      N/A
SPRINGVIEW       N/A     76  66  71 E5          N/A
HALSEY           N/A     78  64  62 S9G16       N/A
BREWSTER         N/A     81  68  65 S14         N/A
ROSE             N/A     86  81  86 S16         N/A  HX 103
NEWPORT          N/A     76  69  78 S9          N/A
CHAMBERS         N/A     72  65  77 S5          N/A
EWING            N/A     70  66  88 CALM        N/A
$$

...OBSERVATIONS IN SOUTHWEST NEBRASKA AND FAR NORTHEAST COLORADO...

CITY           SKY/WX    TMP DP  RH WIND       PRES   REMARKS
WRAY           FAIR      80  62  53 SE16G22   29.90R
HOLYOKE        FAIR      81  63  54 S15       29.91R
IMPERIAL       MOCLDY    81  62  52 SE14      29.90R
OGALLALA       MOCLDY    78  62  59 S9        29.88S
NORTH PLATTE   CLEAR     77  64  64 SE10      29.89S
MCCOOK         PTCLDY    78  62  57 SE9       29.89R
LEXINGTON      MOCLDY    76  65  69 S14       29.90S
PAXTON           N/A     76  65  67 SE13        N/A
GOTHENBURG       N/A     78  61  56 SE8         N/A
CALLAWAY         N/A     74  67  78 S13         N/A
$$

...NORTH PLATTE AREA...

CITY           SKY/WX    TMP DP  RH WIND       PRES   REMARKS
AIRPORT        CLEAR     77  64  64 SE10      29.89S
DOWNTOWN         N/A     78  66  66 MISG        N/A
HILLCREST        N/A     77  65  66 SE13G20     N/A
$$

...SOME WEATHER OBSERVATIONS FROM AROUND THE REGION...

CITY           SKY/WX    TMP DP  RH WIND       PRES   REMARKS
DENVER         MOCLDY    74  49  41 SW13      30.02R
LARAMIE        CLOUDY    66  47  50 NW26G32   30.16R
CHEYENNE       MOCLDY    68  52  56 W8        30.04S
SCOTTSBLUFF    MOCLDY    72  62  71 E6        29.88S
RAPID CITY     CLEAR     69  63  81 W5        29.82S HAZE
PIERRE         MOCLDY    81  67  62 SW7       29.73R
WINNER         FAIR      81  64  56 S20       29.79S
SIOUX FALLS    PTCLDY    72  63  73 S12       29.90S
OMAHA          CLEAR     72  62  71 S9        29.95S
GRAND ISLAND   CLOUDY    73  63  70 SE13      29.92R
KANSAS CITY    CLEAR     68  63  84 SE7       30.00R
WICHITA        PTCLDY    78  65  63 SE10      29.95R
HAYS           MOCLDY    77  63  61 SE13      29.92R
LIBERAL        MOCLDY    75  64  69 S10       29.95F
GOODLAND       PTCLDY    76  60  57 SE17      29.92F
$$



USA.gov is the U.S. government's official web portal to all federal, state and local government web resources and services.